Location: Austin
(30.3000°N, 97.7500°W)
Time: 05:44:13
(UTC-06:00)

ATLAS 2A CENTAUR R/B - Pass Details

Date: 05 February 2026
Orbit: 180 x 5435 km, 26.8° (Epoch: 14 February)

Event Time Altitude Azimuth Distance (km) Brightness Sun altitude
Exits shadow 05:26:45 48° 181° (S) 808 3.1 -24.6°
Drops below altitude 10° 05:29:31 10° 119° (ESE) 1,477 5.4 -24.0°
Sets 05:30:57 0° 112° (ESE) 2,082 6.5 -23.7°
